Find Starlink 36216

NORAD ID: 67217 Int'l Des: 2025-304 Owner: SPXS Country: US Constellation: starlink operational
LEOCIRCULAR

Current View

Loading 3D Globe...

About Starlink 36216

Description loading...

Upcoming Passes

Passes for default location (London). Set your location on the main map for personalized predictions.

Altitude History

Loading altitude history...

Two-Line Element Set

1 67217U 25304AB 26146.26278911 .00002191 00000-0 19128-3 0 9999
2 67217 70.0020 338.8908 0002549 266.0259 94.0609 14.98344922 25497
Epoch: May 26, 2026 • Age: 9 hours

Current Status

Altitude 580.2 km
Velocity 7.57 km/s
Sub-Earth Point -25.80°S, 55.22°E
Launch Date Dec 17, 2025
Age 0.4 years
Type internet

Technical Details

Classification Payload
Mass 575.00 kg
Dry Mass 530.00 kg
Total Mass 575.00 kg
Length 0.30 m
Diameter 4.10 m
Span 29.00 m
Shape Box + pan
Manufacturer SPXS
Bus Type Starlink V2MO
Phase Status In Orbit
Owner/State SPXS/US

Most Searched